Lapse_Rate
7.4 7.4 7.3 7.4 7.5 7.4 7.3 7.1 6.8 6.7 6.7 6.7 6.6 6.7 6.9 6.9 6.9 6.9 6.9 6.7 7.0 7.3 7.3 7.2 7.0 6.8 6.6 6.7 7.0 7.3 7.2 6.8
7.3 7.3 7.3 7.3 7.2 7.3 7.2 7.1 7.0 6.7 6.5 6.6 6.5 6.5 6.8 6.6 6.8 6.6 7.0 7.0 7.4 7.4 7.1 7.0 7.1 6.8 6.8 6.8 7.0 7.3 7.0 6.8
7.4 7.4 7.3 7.3 7.2 7.0 7.0 7.0 6.8 6.8 6.8 6.5 6.5 6.7 6.8 6.8 6.8 6.7 7.1 6.8 7.3 7.2 7.0 6.8 6.7 6.8 6.6 6.7 6.9 7.0 6.8 7.0
7.3 7.4 7.4 7.2 7.3 7.2 7.1 7.0 6.9 6.9 6.6 6.4 6.6 6.4 6.5 6.7 6.9 7.0 6.8 7.1 7.1 6.9 6.8 6.7 6.5 6.5 6.7 6.6 6.5 6.6 6.6 7.1
7.3 7.4 7.5 7.4 7.2 7.2 7.2 7.2 7.0 6.9 6.7 6.6 6.2 6.5 6.7 6.7 6.6 6.7 6.7 7.1 7.4 7.2 7.0 6.8 6.6 6.5 6.7 6.6 6.5 6.7 6.9 6.9
7.4 7.5 7.5 7.5 7.3 7.3 7.3 7.5 7.3 7.3 6.8 6.7 6.5 6.6 6.8 6.9 6.9 6.7 6.7 6.8 7.3 6.9 7.1 6.9 6.8 6.6 6.6 6.5 6.6 6.8 6.6 6.9
7.5 7.5 7.6 7.6 7.5 7.5 7.5 7.5 7.4 7.4 6.7 6.5 6.5 6.4 6.5 6.9 7.0 6.8 6.8 7.0 7.1 7.1 7.2 7.0 6.6 6.6 6.7 7.0 6.7 6.4 6.2 6.3
6.3 7.5 7.1 7.3 7.5 7.6 7.6 7.6 7.3 7.1 6.4 6.2 6.1 6.0 6.3 6.3 6.8 6.7 6.9 7.0 6.8 6.9 6.9 6.9 6.5 6.6 6.8 6.9 7.1 6.8 6.5 6.7
6.8 6.7 7.3 7.2 7.2 7.5 7.7 7.5 7.2 7.1 6.8 6.3 6.0 6.3 6.4 6.3 6.7 6.6 6.5 6.6 6.7 6.6 6.7 6.7 6.7 6.8 6.8 7.1 7.1 6.8 6.4 6.7
7.4 6.9 7.1 7.5 7.1 7.4 7.9 7.7 7.4 7.1 7.2 7.0 6.5 6.2 6.6 6.6 6.6 6.8 6.4 6.5 6.5 6.6 6.6 7.0 7.0 6.8 6.7 6.6 6.6 6.3 6.3 6.6
7.9 7.8 7.7 7.7 7.2 7.6 7.9 7.7 7.5 7.1 7.3 7.4 6.7 6.6 6.6 7.1 7.0 6.5 6.5 6.7 6.6 6.6 6.8 7.0 6.7 6.3 6.5 6.4 6.1 5.9 6.3 6.6
7.4 7.6 8.0 8.0 7.6 7.7 8.0 7.9 7.1 7.3 7.3 7.5 7.1 6.8 6.7 6.6 7.1 6.6 6.5 6.3 6.3 6.5 6.7 6.4 6.5 6.3 6.6 6.2 5.7 6.0 6.2 6.3
7.6 8.0 7.8 8.0 7.9 7.8 7.9 8.4 7.6 7.2 7.1 7.4 6.9 7.0 7.1 7.2 6.7 7.0 6.6 6.8 6.3 6.5 6.6 6.7 6.3 6.5 6.2 5.8 5.9 5.7 6.0 6.3
7.9 8.1 7.7 7.8 7.3 7.8 8.1 8.2 7.5 7.1 6.9 7.1 7.1 7.1 6.7 7.2 6.6 7.0 6.6 6.9 6.3 6.6 6.3 6.3 6.4 6.5 6.2 5.8 5.8 6.0 6.2 6.5
7.4 7.3 7.2 7.4 7.8 7.6 7.8 7.0 7.0 6.8 7.0 7.3 7.0 6.9 6.6 6.5 6.8 6.4 7.1 7.0 6.6 6.4 6.3 6.8 7.0 6.7 6.2 5.8 6.2 6.2 6.5 6.6
7.1 7.3 7.4 7.7 7.3 7.6 8.1 7.8 6.8 6.9 7.2 7.0 7.0 6.9 7.0 6.8 7.0 6.9 7.2 6.3 6.4 6.6 6.6 7.1 7.1 6.9 6.2 6.0 6.2 6.3 6.6 6.6
7.0 7.2 7.6 7.6 7.5 7.4 7.8 7.8 7.0 7.1 6.7 6.8 6.8 6.9 7.1 7.0 6.9 7.0 6.9 6.5 6.4 6.5 6.8 7.1 7.4 6.9 6.3 6.1 6.4 6.5 6.4 6.7
6.1 6.0 6.4 7.5 7.4 7.7 7.8 7.7 7.6 7.1 7.1 7.0 6.8 6.8 6.9 6.8 6.9 6.9 7.2 7.0 6.8 7.2 6.9 6.9 7.4 6.9 6.4 6.1 6.2 6.4 6.6 6.5
6.5 6.5 6.6 6.5 6.9 7.3 7.1 7.6 7.8 7.9 7.8 7.5 7.4 7.1 7.2 7.0 7.3 6.9 7.1 7.1 6.8 6.8 7.2 7.1 7.3 7.1 6.6 6.3 6.3 6.2 6.1 6.0
7.1 7.3 7.3 7.2 7.0 7.4 7.8 7.7 7.4 7.6 7.9 7.7 7.4 7.4 7.6 7.6 7.1 6.8 7.0 7.0 6.8 7.1 7.1 7.2 7.1 7.0 6.7 6.4 6.3 6.3 5.8 6.1
Wind_Speed
11 14 18 21 22 23 23 23 22 20 20 21 21 22 22 23 22 19 18 15 21 18 13 11 9 16 24 25 30 23 22 21
11 10 10 12 15 22 22 22 24 25 21 23 23 22 22 22 21 20 16 15 18 20 16 10 12 23 26 28 30 24 24 21
11 11 11 11 11 16 21 21 23 25 28 28 24 18 18 18 20 16 18 19 19 17 16 15 14 25 28 30 25 20 21 18
12 13 12 12 14 14 15 18 18 18 18 19 18 18 14 17 21 18 15 18 17 17 16 16 16 19 21 23 20 19 20 19
11 12 14 14 11 13 12 13 15 15 18 17 16 16 18 17 16 13 14 14 9 12 15 14 13 15 17 18 20 18 17 18
11 12 9 11 8 10 10 7 13 11 17 19 16 10 12 15 12 12 12 14 11 8 9 8 14 21 20 19 20 19 17 17
17 14 11 7 11 9 8 9 7 13 17 18 17 11 10 14 13 13 11 14 11 7 5 7 10 15 17 18 18 20 20 17
18 18 16 15 10 11 9 7 11 14 15 18 19 16 11 10 8 11 11 15 16 12 7 6 7 16 15 17 15 18 18 17
18 15 12 16 16 12 8 8 12 9 13 20 14 17 16 12 10 8 11 15 16 13 11 12 8 14 9 14 15 15 18 18
17 10 14 15 14 11 9 8 7 9 13 17 15 16 14 12 10 10 16 15 12 7 5 7 7 9 8 7 10 13 16 17
16 14 16 14 14 11 11 11 8 7 12 14 15 18 20 14 9 10 17 12 7 7 8 9 10 9 10 8 5 6 11 14
17 13 13 12 10 8 8 9 9 8 8 10 17 15 16 14 9 11 15 9 7 7 10 8 9 10 10 7 6 6 12 11
16 15 13 10 8 6 6 10 8 9 9 14 16 17 20 15 10 10 11 11 12 11 11 14 6 10 8 8 5 5 6 5
13 12 11 10 7 6 2 3 4 7 6 8 16 17 19 13 13 13 13 10 12 12 15 9 7 10 8 6 4 3 1 4
11 11 11 10 10 6 3 3 1 3 5 7 8 15 18 16 13 12 12 11 11 15 15 18 13 6 18 5 4 4 4 1
4 4 10 11 14 11 11 6 6 6 7 7 9 12 13 17 15 15 16 12 14 15 14 15 17 14 12 3 3 7 4 5
5 7 6 8 11 12 11 9 6 5 6 10 11 12 14 14 15 15 16 12 13 15 17 16 15 14 14 3 2 5 4 4
4 4 8 9 10 11 13 14 10 7 8 8 9 9 10 14 13 14 15 14 14 15 16 17 16 14 10 4 7 7 6 4
6 4 1 8 11 11 12 13 14 13 11 9 11 10 11 15 16 12 12 12 12 15 15 15 16 14 15 7 6 5 6 4
9 7 5 7 12 13 12 12 7 8 9 10 9 11 13 17 18 16 17 16 13 15 13 12 16 14 14 12 6 7 5 9
Wind_Direction
151 164 165 157 155 155 155 157 157 152 145 139 129 125 126 125 125 122 123 141 124 123 126 129 128 77 57 62 110 111 100 90
150 153 162 163 162 158 158 156 153 146 137 127 125 130 131 126 121 123 139 140 128 132 134 138 131 85 77 71 103 90 91 91
155 158 161 164 164 166 158 156 147 141 138 134 133 137 133 128 124 136 147 142 141 141 140 147 120 96 90 81 89 94 94 91
165 163 165 165 170 170 162 159 155 149 142 139 136 138 133 121 129 139 144 138 144 146 149 148 126 110 97 92 94 98 98 99
172 169 170 170 168 168 168 163 155 150 149 143 141 133 126 125 128 136 138 136 152 167 155 151 134 118 108 111 106 97 93 98
177 178 172 173 164 171 168 168 166 157 160 151 148 141 139 138 138 144 143 150 171 203 161 162 119 125 126 122 114 104 96 94
184 173 176 161 161 174 165 166 158 159 159 163 157 154 150 146 148 153 164 166 169 183 166 127 97 116 112 115 118 114 107 100
185 185 172 157 167 166 167 164 157 160 166 169 164 163 159 159 152 163 171 175 166 163 139 108 93 112 116 122 114 109 107 100
182 180 168 162 162 163 170 170 161 174 170 171 160 164 166 168 155 155 156 153 145 134 118 97 91 100 107 115 113 114 109 103
183 160 157 160 167 166 167 170 178 183 176 169 158 150 158 156 151 149 148 144 149 141 126 110 106 106 101 106 122 125 119 116
168 159 160 161 162 154 163 173 179 180 176 170 167 171 160 163 156 147 152 148 158 158 144 142 129 118 114 111 100 109 120 126
165 162 151 150 149 156 161 168 181 186 187 179 168 153 158 155 154 150 154 159 165 152 143 136 134 130 117 96 88 89 100 109
169 163 157 150 139 148 169 179 180 192 186 183 173 164 164 162 162 159 169 175 175 159 144 137 127 133 112 95 60 83 94 104
150 160 158 159 165 153 127 168 195 188 184 194 175 171 166 165 166 169 174 179 167 163 155 147 143 157 145 114 122 36 30 147
161 171 175 158 154 131 93 92 117 189 189 173 200 180 176 173 169 172 177 194 181 171 165 161 160 172 163 141 141 181 139 165
39 182 195 164 162 166 170 176 194 199 221 196 181 200 192 182 181 179 190 186 185 178 171 170 163 169 188 223 179 142 161 153
98 184 196 188 178 182 183 178 189 198 186 205 199 194 206 196 183 194 186 188 186 183 176 175 175 173 189 135 121 143 123 136
49 100 197 194 194 192 186 189 186 182 186 194 193 196 195 200 197 190 189 197 188 187 181 178 178 180 185 189 170 166 161 143
338 7 301 183 194 193 205 200 197 196 188 196 193 194 194 196 198 189 195 194 190 185 186 181 183 181 182 191 179 177 159 112
304 297 263 193 191 198 201 204 214 213 205 198 199 203 202 196 195 191 194 187 186 193 192 182 185 185 183 191 180 162 156 144